Location: Arrodets-la-Barthe
(43.0306°N, 0.2829°E)
Time: 02:29:24
(UTC+00:00)

Cosmos 2344 - Pass Details

Date: 03 June 2022
Orbit: 1228 x 3015 km, 63.3° (Epoch: 03 July)

Event Time Altitude Azimuth Distance (km) Brightness Sun altitude
Rises 23:38:07 0° 305° (NW) 4,192 6.9 -24.4°
Reaches altitude 10° 23:41:49 10° 323° (NW) 3,315 6.5 -24.5°
Maximum altitude 23:47:14 19° 8° (N) 2,888 6.3 -24.5°
Drops below altitude 10° 23:53:27 10° 51° (NE) 3,891 6.6 -24.6°
Sets 23:58:22 0° 68° (ENE) 5,201 7.1 -24.6°
